Regional Weather Roundup
Issued by NWS

Home | Current Version | Previous Version | Graphics & Text | Print | Product List | Glossary On
Versions: 1 2 3 4 5 6 7 8 9 10 11 12 13 14 15 16 17 18 19 20 21 22 23 24 25 26 27 28 29 30 31 32 33 34 35 36 37 38 39 40 41 42 43 44 45 46 47 48 49 50
000
ASUS43 KLOT 110406
RWRIL

ILLINOIS REGIONAL WEATHER ROUNDUP
NATIONAL WEATHER SERVICE CHICAGO/ROMEOVILLE IL
1100 PM CDT THU JUL 10 2014

NOTE: "FAIR" INDICATES FEW OR NO CLOUDS BELOW 12,000 FEET WITH NO
SIGNIFICANT WEATHER AND/OR OBSTRUCTIONS TO VISIBILITY.

* THESE STATIONS ARE NOT UNDER NWS QUALITY CONTROL. THEY ALSO MAY NOT
  REPORT WEATHER SUCH AS PRECIPITATION OR FOG.

ILZ001-002-007-009-015-016-024-110500-
NORTHWEST ILLINOIS

CITY           SKY/WX    TMP DP  RH WIND       PRES   REMARKS
MOLINE         MOCLDY    67  60  78 S7        30.13S
STERLING*      MOCLDY    66  57  72 CALM      30.16R
SAVANNA*       CLOUDY    67  61  81 SE3       30.13F
$$

ILZ003-004-008-010-011-017-018-110500-
NORTH CENTRAL ILLINOIS

CITY           SKY/WX    TMP DP  RH WIND       PRES   REMARKS
ROCKFORD       MOCLDY    67  57  70 SE10      30.16S
FREEPORT*      MOCLDY    61  58  90 S6        30.17S
ROCHELLE*      PTCLDY    63  57  82 SE8       30.17S
DE KALB*       CLEAR     63  54  74 SE7       30.18S
PERU*          PTCLDY    67  57  69 S7        30.17R
$$

ILZ005-006-012>014-019>023-110500-
NORTHEAST ILLINOIS

CITY           SKY/WX    TMP DP  RH WIND       PRES   REMARKS
CHICAGO-OHARE  PTCLDY    68  47  46 SE6       30.17S
CHICAGO-MIDWAY PTCLDY    70  52  52 E5        30.17S
AURORA         CLEAR     64  53  67 CALM      30.17R
LANSING*       CLEAR     60  53  76 CALM      30.18S
JOLIET*        CLEAR     64  51  62 CALM      30.18S
WAUKEGAN       CLEAR     58  55  90 CALM      30.17S
DUPAGE AIRPORT CLEAR     66  50  56 SE3       30.17R
KANKAKEE*      CLEAR     63  54  74 SE3       30.18S
WHEELING       CLEAR     65  53  65 CALM      30.19R
MORRIS*        CLEAR     64  56  77 E5        30.17S
ROMEOVILLE*    CLEAR     65  50  58 E3        30.17S
NORTHERLY ISL    N/A     66  57  72 S2          N/A
$$

LMZ740>746-110500-
SOUTHERN LAKE MICHIGAN

STATION/POSITION SKY/WX   TEMP    WIND        PRES    VSBY  WAVE
                          AIR SEA DIR/SP/G                  HT/PER
                          (F)     (DEG/KT/KT) (MB)    (MI)  (FT/S)
SOUTHERN BUOY              63 59  150/  4/  4 1022.2R         0
WAUKEGAN HARBOR            64     180/  4/  4 1023.0R
HARRISON CRIB              68     140/  5/  6   N/A
BURNHAM HARBOR             67     150/  1/  2   N/A
CALUMET HARBOR             68      70/  2/  3 1022.6S
MICHIGAN CITY              66      80/  2/  4   N/A
$$

ILZ025>027-034>036-040-047-049-050-058-095>099-110500-
WEST-CENTRAL ILLINOIS

CITY           SKY/WX    TMP DP  RH WIND       PRES   REMARKS
QUINCY         PTCLDY    67  58  72 SE7       30.14R
GALESBURG*     PTCLDY    67  60  78 S3        30.15S
MACOMB*        PTCLDY    61  58  90 SE6       30.17S
JACKSONVILLE*  CLEAR     64  60  85 CALM      30.17R
PITTSFIELD*    CLEAR     65  58  78 CALM      30.16R
$$

ILZ028>032-037-038-041>044-048-051>054-059>061-110500-
CENTRAL ILLINOIS

CITY           SKY/WX    TMP DP  RH WIND       PRES   REMARKS
PONTIAC        CLEAR     63  61  94 SE5       30.17S
BLOOMINGTON    CLEAR     65  55  69 SE5       30.19R
DECATUR        CLEAR     63  58  83 E5        30.17R
PEORIA         PTCLDY    67  58  72 CALM      30.16R
LACON*         CLEAR     64  58  81 CALM      30.15S
LINCOLN*       CLEAR     64  59  83 CALM      30.15R
SPRINGFIELD    CLEAR     66  59  78 SE5       30.16R
TAYLORVILLE    CLEAR     64  54  68 E6        30.16S
$$

ILZ033-039-045-046-055>057-062-063-110500-
EAST-CENTRAL ILLINOIS

CITY           SKY/WX    TMP DP  RH WIND       PRES   REMARKS
CHAMPAIGN      CLEAR     63  57  81 E3        30.18R
RANTOUL*       CLEAR     67  57  71 CALM      30.19R
MATTOON          N/A     65  56  72 CALM      30.16R
PARIS*         CLEAR     58  57  96 CALM      30.18R
$$

ILZ079-100>102-110500-
SOUTHWEST ILLINOIS

CITY           SKY/WX    TMP DP  RH WIND       PRES   REMARKS
ALTON          CLEAR     67  61  80 E5        30.15R
BELLEVILLE     CLEAR     67  61  82 CALM      30.13R
CAHOKIA*       CLEAR     66  61  84 CALM      30.13R
SPARTA*        CLEAR     64  61  88 E3        30.15R
$$

ILZ064>066-069>071-074>076-080>082-084>086-088>090-092>094-110500-
SOUTH-CENTRAL ILLINOIS

CITY           SKY/WX    TMP DP  RH WIND       PRES   REMARKS
CARBONDALE     CLEAR     66  63  90 CALM      30.14R
CAIRO*         CLEAR     73  66  78 CALM      30.13R
MARION         CLEAR     66  64  94 CALM      30.14R
MT. VERNON     CLEAR     64  57  77 CALM      30.16R
CENTRALIA*     CLEAR     63  60  90 CALM      30.15R
SALEM*         CLEAR     69  61  77 E3        30.15S
METROPOLIS*    CLEAR     67  65  91 CALM      30.13R
$$

ILZ067-068-072-073-078-083-087-091-110500-
SOUTHEAST ILLINOIS

CITY           SKY/WX    TMP DP  RH WIND       PRES   REMARKS
FLORA*         CLEAR     67  58  74 CALM      30.16R
HARRISBURG*    CLEAR     65  65  99 CALM      30.15S
ROBINSON*      CLEAR     63  61  93 CALM      30.16S
CARMI*         CLEAR     64  63  97 CALM      30.14R
$$

ABBREVIATIONS USED IN REMARKS
   TC - TEMPERATURE IN CELSIUS
  WCI - WIND CHILL INDEX
   HX - HEAT INDEX
  VSB - VISIBILITY
$$



USA.gov is the U.S. government's official web portal to all federal, state and local government web resources and services.